ANA9251 RJCK-RJTT

Flight info

Callsign ANA9251
Flight time 1h 35m
Altitude 38000
Route ENTOD Y112 OMGOL Y111 MQE Y106 RUBIS Y10 GODIN
Aircraft B77W/H-SDE1E2E3FGHIJ2J3J4J5M1RWXY/LB1D1

Departure

Time 2026-05-04 02:21
Airport Kushiro Airport (RJCK)

Arrival

Time 2026-05-04 03:56
Airport Tokyo Haneda International Airport (RJTT)
Time Latitude Longitude Altitude Speed Heading
2026-05-04 02:01 43.04549 144.19479 339 ft 0 kts 69°
2026-05-04 02:12 43.04545 144.19466 339 ft 2 kts 71°
2026-05-04 02:12 43.04540 144.19446 339 ft 2 kts 70°
2026-05-04 02:13 43.04534 144.19428 339 ft 2 kts 69°
2026-05-04 02:13 43.04529 144.19408 339 ft 2 kts 69°
2026-05-04 02:13 43.04524 144.19388 339 ft 2 kts 69°
2026-05-04 02:13 43.04518 144.19369 339 ft 2 kts 69°
2026-05-04 02:14 43.04514 144.19351 340 ft 1 kts 80°
2026-05-04 02:14 43.04513 144.19334 340 ft 1 kts 98°
2026-05-04 02:14 43.04516 144.19319 340 ft 1 kts 116°
2026-05-04 02:14 43.04523 144.19304 340 ft 1 kts 134°
2026-05-04 02:15 43.04531 144.19295 340 ft 0 kts 150°
2026-05-04 02:15 43.04537 144.19290 340 ft 1 kts 158°
2026-05-04 02:15 43.04538 144.19290 340 ft 0 kts 158°
2026-05-04 02:17 43.04514 144.19304 340 ft 8 kts 158°
2026-05-04 02:17 43.04427 144.19362 338 ft 18 kts 155°
2026-05-04 02:17 43.04282 144.19443 336 ft 26 kts 159°
2026-05-04 02:17 43.04097 144.19540 332 ft 29 kts 159°
2026-05-04 02:18 43.03893 144.19649 328 ft 32 kts 159°
2026-05-04 02:18 43.03679 144.19762 323 ft 33 kts 158°
2026-05-04 02:18 43.03466 144.19871 318 ft 28 kts 160°
2026-05-04 02:18 43.03293 144.19960 313 ft 21 kts 159°
2026-05-04 02:19 43.03186 144.20016 311 ft 13 kts 159°
2026-05-04 02:19 43.03102 144.19983 309 ft 12 kts 231°
2026-05-04 02:19 43.03068 144.19882 309 ft 8 kts 255°
2026-05-04 02:19 43.03085 144.19827 310 ft 4 kts 321°
2026-05-04 02:20 43.03106 144.19815 310 ft 3 kts 339°
2026-05-04 02:20 43.03142 144.19797 311 ft 18 kts 339°
2026-05-04 02:20 43.03540 144.19594 322 ft 100 kts 338°
2026-05-04 02:20 43.04407 144.19141 419 ft 158 kts 342°
2026-05-04 02:21 43.05425 144.18597 1223 ft 162 kts 335°
2026-05-04 02:21 43.06198 144.17473 1948 ft 175 kts 301°
2026-05-04 02:21 43.06547 144.15790 2454 ft 194 kts 273°
2026-05-04 02:21 43.06321 144.13898 2956 ft 213 kts 244°
2026-05-04 02:22 43.05373 144.12259 3477 ft 229 kts 212°
2026-05-04 02:22 43.03962 144.11130 4262 ft 241 kts 207°
2026-05-04 02:22 43.02487 144.10059 5223 ft 246 kts 209°
2026-05-04 02:22 43.00934 144.09230 6464 ft 243 kts 193°
2026-05-04 02:23 42.99252 144.09323 7573 ft 250 kts 174°
2026-05-04 02:23 42.97551 144.10066 8364 ft 264 kts 167°
2026-05-04 02:23 42.95828 144.10968 9249 ft 270 kts 167°
2026-05-04 02:23 42.94095 144.11888 10161 ft 273 kts 167°
2026-05-04 02:24 42.92270 144.12843 10816 ft 289 kts 168°
2026-05-04 02:24 42.90360 144.13856 11457 ft 306 kts 166°
2026-05-04 02:24 42.88323 144.15013 12098 ft 324 kts 166°
2026-05-04 02:24 42.86221 144.16213 12811 ft 339 kts 166°
2026-05-04 02:25 42.83999 144.17471 13609 ft 352 kts 166°
2026-05-04 02:25 42.81687 144.18776 14437 ft 365 kts 167°
2026-05-04 02:25 42.79352 144.20094 15449 ft 371 kts 167°
2026-05-04 02:25 42.76964 144.21440 16511 ft 376 kts 167°
2026-05-04 02:26 42.74543 144.22806 17564 ft 378 kts 168°
2026-05-04 02:26 42.72128 144.24106 18530 ft 377 kts 172°
2026-05-04 02:26 42.69581 144.24976 19248 ft 376 kts 181°
2026-05-04 02:26 42.67525 144.25252 19861 ft 374 kts 187°
2026-05-04 02:27 42.64931 144.25079 20810 ft 368 kts 195°
2026-05-04 02:27 42.62481 144.24443 21839 ft 362 kts 200°
2026-05-04 02:27 42.60048 144.23715 22812 ft 360 kts 199°
2026-05-04 02:27 42.57601 144.22981 23723 ft 361 kts 200°
2026-05-04 02:28 42.55167 144.22249 24522 ft 364 kts 200°
2026-05-04 02:28 42.52676 144.21500 25296 ft 370 kts 200°
2026-05-04 02:28 42.50149 144.20740 26043 ft 376 kts 200°
2026-05-04 02:28 42.47607 144.19977 26899 ft 378 kts 200°
2026-05-04 02:29 42.45016 144.19200 27661 ft 383 kts 200°
2026-05-04 02:29 42.42412 144.18420 28450 ft 386 kts 200°
2026-05-04 02:29 42.39818 144.17645 29226 ft 389 kts 200°
2026-05-04 02:29 42.37154 144.16849 29932 ft 394 kts 200°
2026-05-04 02:30 42.34464 144.16045 30627 ft 398 kts 200°
2026-05-04 02:30 42.31762 144.15240 31474 ft 398 kts 201°
2026-05-04 02:30 42.29087 144.14447 32423 ft 394 kts 201°
2026-05-04 02:30 42.26463 144.13672 33495 ft 386 kts 201°
2026-05-04 02:31 42.23844 144.12898 34443 ft 382 kts 201°
2026-05-04 02:31 42.21246 144.12129 35206 ft 381 kts 202°
2026-05-04 02:31 42.18652 144.11360 35889 ft 380 kts 201°
2026-05-04 02:31 42.16045 144.10588 36538 ft 379 kts 202°
2026-05-04 02:32 42.13471 144.09828 37180 ft 377 kts 202°
2026-05-04 02:32 42.10888 144.09064 37399 ft 378 kts 202°
2026-05-04 02:32 42.05798 144.07562 37402 ft 376 kts 202°
2026-05-04 02:33 42.00928 144.05328 37402 ft 366 kts 209°
2026-05-04 02:33 41.96196 144.02734 37411 ft 364 kts 209°
2026-05-04 02:34 41.91491 144.00159 37415 ft 365 kts 210°
2026-05-04 02:34 41.86803 143.97595 37433 ft 368 kts 210°
2026-05-04 02:35 41.82081 143.95018 37427 ft 366 kts 210°
2026-05-04 02:35 41.77357 143.92444 37417 ft 366 kts 210°
2026-05-04 02:36 41.72602 143.89856 37408 ft 367 kts 210°
2026-05-04 02:36 41.67848 143.87271 37408 ft 369 kts 209°
2026-05-04 02:37 41.63130 143.84714 37408 ft 367 kts 209°
2026-05-04 02:37 41.58384 143.82144 37405 ft 369 kts 209°
2026-05-04 02:38 41.53632 143.79575 37401 ft 368 kts 210°
2026-05-04 02:38 41.48905 143.77023 37401 ft 367 kts 209°
2026-05-04 02:39 41.44156 143.74464 37399 ft 369 kts 210°
2026-05-04 02:39 41.39379 143.71893 37404 ft 369 kts 209°
2026-05-04 02:40 41.34629 143.69342 37401 ft 369 kts 210°
2026-05-04 02:40 41.29882 143.66795 37396 ft 369 kts 209°
2026-05-04 02:41 41.25113 143.64241 37392 ft 369 kts 209°
2026-05-04 02:41 41.20331 143.61685 37394 ft 370 kts 210°
2026-05-04 02:42 41.15556 143.59134 37395 ft 371 kts 209°
2026-05-04 02:42 41.10799 143.56601 37387 ft 370 kts 209°
2026-05-04 02:43 41.05999 143.54047 37389 ft 370 kts 209°
2026-05-04 02:43 41.01203 143.51498 37386 ft 372 kts 210°
2026-05-04 02:44 40.96418 143.48959 37384 ft 371 kts 210°
2026-05-04 02:44 40.91608 143.46411 37392 ft 370 kts 209°
2026-05-04 02:45 40.86836 143.43889 37408 ft 371 kts 209°
2026-05-04 02:45 40.82038 143.41354 37415 ft 373 kts 209°
2026-05-04 02:46 40.77226 143.38818 37409 ft 371 kts 209°
2026-05-04 02:46 40.72449 143.36304 37402 ft 372 kts 210°
2026-05-04 02:47 40.67626 143.33769 37436 ft 374 kts 209°
2026-05-04 02:47 40.62804 143.31239 37426 ft 372 kts 209°
2026-05-04 02:48 40.58408 143.27898 37424 ft 366 kts 225°
2026-05-04 02:48 40.55173 143.22794 37426 ft 359 kts 234°
2026-05-04 02:49 40.52358 143.17418 37428 ft 359 kts 235°
2026-05-04 02:49 40.49522 143.12033 37426 ft 357 kts 234°
2026-05-04 02:50 40.46689 143.06673 37418 ft 357 kts 236°
2026-05-04 02:50 40.43864 143.01338 37417 ft 357 kts 235°
2026-05-04 02:51 40.41028 142.95993 37417 ft 356 kts 234°
2026-05-04 02:51 40.38207 142.90689 37418 ft 356 kts 236°
2026-05-04 02:52 40.35369 142.85359 37404 ft 355 kts 234°
2026-05-04 02:52 40.32551 142.80078 37409 ft 355 kts 235°
2026-05-04 02:53 40.29713 142.74768 37408 ft 356 kts 236°
2026-05-04 02:53 40.26888 142.69488 37404 ft 356 kts 236°
2026-05-04 02:54 40.24046 142.64189 37408 ft 355 kts 236°
2026-05-04 02:54 40.21210 142.58910 37402 ft 355 kts 236°
2026-05-04 02:55 40.16959 142.51009 37393 ft 355 kts 236°
2026-05-04 02:56 40.14120 142.45746 37398 ft 354 kts 235°
2026-05-04 02:56 40.11291 142.40509 37377 ft 353 kts 235°
2026-05-04 02:57 40.08457 142.35272 37375 ft 354 kts 236°
2026-05-04 02:57 40.05620 142.30039 37399 ft 353 kts 234°
2026-05-04 02:58 40.02792 142.24831 37411 ft 352 kts 234°
2026-05-04 02:58 39.99938 142.19582 37417 ft 354 kts 235°
2026-05-04 02:59 39.97098 142.14371 37411 ft 353 kts 234°
2026-05-04 02:59 39.94244 142.09139 37412 ft 353 kts 234°
2026-05-04 03:00 39.91385 142.03908 37400 ft 354 kts 236°
2026-05-04 03:00 39.88526 141.98685 37425 ft 353 kts 234°
2026-05-04 03:01 39.84957 141.94282 37415 ft 361 kts 216°
2026-05-04 03:01 39.80441 141.91376 37420 ft 367 kts 214°
2026-05-04 03:02 39.75780 141.88516 37431 ft 369 kts 214°
2026-05-04 03:02 39.71104 141.85715 37465 ft 369 kts 211°
2026-05-04 03:03 39.66409 141.83046 37456 ft 367 kts 211°
2026-05-04 03:03 39.61745 141.80399 37477 ft 368 kts 211°
2026-05-04 03:04 39.57060 141.77743 37476 ft 370 kts 212°
2026-05-04 03:04 39.52329 141.75067 37477 ft 370 kts 212°
2026-05-04 03:05 39.47567 141.72376 37492 ft 373 kts 213°
2026-05-04 03:05 39.42818 141.69698 37473 ft 371 kts 212°
2026-05-04 03:06 39.38107 141.67044 37477 ft 371 kts 211°
2026-05-04 03:06 39.33368 141.64380 37487 ft 371 kts 212°
2026-05-04 03:07 39.28625 141.61716 37484 ft 374 kts 213°
2026-05-04 03:07 39.23882 141.59058 37470 ft 370 kts 212°
2026-05-04 03:08 39.19129 141.56393 37469 ft 376 kts 212°
2026-05-04 03:08 39.14325 141.53708 37480 ft 374 kts 212°
2026-05-04 03:09 39.09535 141.51035 37495 ft 374 kts 211°
2026-05-04 03:09 39.04761 141.48375 37480 ft 374 kts 212°
2026-05-04 03:10 39.00017 141.45734 37466 ft 373 kts 211°
2026-05-04 03:10 38.95247 141.43083 37481 ft 374 kts 212°
2026-05-04 03:11 38.90481 141.40439 37465 ft 373 kts 212°
2026-05-04 03:11 38.85701 141.37790 37483 ft 373 kts 212°
2026-05-04 03:12 38.80919 141.35146 37494 ft 373 kts 212°
2026-05-04 03:12 38.76176 141.32526 37506 ft 372 kts 211°
2026-05-04 03:13 38.71401 141.29889 37518 ft 376 kts 211°
2026-05-04 03:13 38.66606 141.27248 37517 ft 374 kts 211°
2026-05-04 03:14 38.61844 141.24628 37520 ft 375 kts 211°
2026-05-04 03:14 38.57039 141.21988 37538 ft 377 kts 211°
2026-05-04 03:15 38.52241 141.19357 37539 ft 375 kts 212°
2026-05-04 03:15 38.47434 141.16724 37534 ft 376 kts 211°
2026-05-04 03:16 38.42630 141.14098 37536 ft 375 kts 211°
2026-05-04 03:16 38.37842 141.11484 37528 ft 374 kts 211°
2026-05-04 03:17 38.33033 141.08859 37534 ft 377 kts 211°
2026-05-04 03:17 38.28250 141.06256 37521 ft 377 kts 211°
2026-05-04 03:18 38.23408 141.03624 37512 ft 375 kts 211°
2026-05-04 03:18 38.18594 141.01009 37523 ft 380 kts 210°
2026-05-04 03:19 38.13749 140.98383 37525 ft 379 kts 211°
2026-05-04 03:19 38.08905 140.95760 37521 ft 380 kts 211°
2026-05-04 03:20 38.04039 140.93129 37521 ft 381 kts 211°
2026-05-04 03:20 37.99178 140.90506 37530 ft 378 kts 211°
2026-05-04 03:21 37.94316 140.87885 37540 ft 379 kts 211°
2026-05-04 03:21 37.89453 140.85268 37548 ft 380 kts 211°
2026-05-04 03:22 37.84591 140.82654 37569 ft 380 kts 211°
2026-05-04 03:22 37.79704 140.80032 37570 ft 380 kts 210°
2026-05-04 03:23 37.74844 140.77428 37584 ft 380 kts 210°
2026-05-04 03:23 37.69994 140.74832 37585 ft 378 kts 210°
2026-05-04 03:24 37.65133 140.72235 37583 ft 380 kts 210°
2026-05-04 03:24 37.60259 140.69634 37571 ft 381 kts 210°
2026-05-04 03:25 37.55371 140.67030 37568 ft 379 kts 210°
2026-05-04 03:25 37.50514 140.64444 37566 ft 384 kts 210°
2026-05-04 03:26 37.45638 140.61858 37212 ft 373 kts 211°
2026-05-04 03:26 37.43243 140.60586 36356 ft 374 kts 210°
2026-05-04 03:26 37.40842 140.59314 35454 ft 375 kts 211°
2026-05-04 03:26 37.38478 140.58060 34677 ft 374 kts 211°
2026-05-04 03:27 37.36050 140.56775 33869 ft 373 kts 210°
2026-05-04 03:27 37.33569 140.55733 33088 ft 390 kts 205°
2026-05-04 03:27 37.30920 140.54782 32245 ft 404 kts 204°
2026-05-04 03:27 37.28216 140.53824 31304 ft 409 kts 205°
2026-05-04 03:28 37.25449 140.52846 30351 ft 410 kts 204°
2026-05-04 03:28 37.22726 140.51888 29719 ft 403 kts 204°
2026-05-04 03:28 37.20074 140.50958 29252 ft 395 kts 204°
2026-05-04 03:28 37.17444 140.50037 28718 ft 388 kts 205°
2026-05-04 03:29 37.14880 140.49138 28164 ft 382 kts 204°
2026-05-04 03:29 37.12319 140.48239 27590 ft 377 kts 204°
2026-05-04 03:29 37.09839 140.47369 27014 ft 373 kts 204°
2026-05-04 03:29 37.07348 140.46497 26442 ft 368 kts 205°
2026-05-04 03:30 37.04881 140.45628 25881 ft 377 kts 204°
2026-05-04 03:30 37.02320 140.44725 25270 ft 382 kts 204°
2026-05-04 03:30 36.99759 140.43828 24654 ft 379 kts 204°
2026-05-04 03:30 36.97240 140.42947 24059 ft 375 kts 203°
2026-05-04 03:31 36.94752 140.42078 23470 ft 373 kts 203°
2026-05-04 03:31 36.92277 140.41213 22875 ft 371 kts 204°
2026-05-04 03:31 36.89790 140.40344 22280 ft 368 kts 204°
2026-05-04 03:31 36.87339 140.39488 21703 ft 365 kts 203°
2026-05-04 03:32 36.84894 140.38635 21084 ft 363 kts 204°
2026-05-04 03:32 36.82454 140.37784 20467 ft 360 kts 203°
2026-05-04 03:32 36.80080 140.36955 19853 ft 358 kts 204°
2026-05-04 03:32 36.77690 140.36122 19227 ft 355 kts 203°
2026-05-04 03:33 36.75327 140.35298 18607 ft 352 kts 204°
2026-05-04 03:33 36.72917 140.34663 18011 ft 354 kts 198°
2026-05-04 03:33 36.70507 140.34177 17426 ft 351 kts 197°
2026-05-04 03:33 36.68109 140.33704 16847 ft 348 kts 197°
2026-05-04 03:34 36.65717 140.33228 16279 ft 345 kts 197°
2026-05-04 03:34 36.63372 140.32759 15699 ft 343 kts 197°
2026-05-04 03:34 36.61038 140.32220 15183 ft 335 kts 201°
2026-05-04 03:34 36.58841 140.31302 14750 ft 333 kts 208°
2026-05-04 03:35 36.56802 140.30002 14339 ft 327 kts 216°
2026-05-04 03:35 36.54958 140.28361 13910 ft 323 kts 222°
2026-05-04 03:35 36.53360 140.26456 13493 ft 317 kts 229°
2026-05-04 03:35 36.51915 140.24399 13065 ft 314 kts 230°
2026-05-04 03:36 36.50496 140.22337 12634 ft 313 kts 230°
2026-05-04 03:36 36.49094 140.20297 12217 ft 312 kts 231°
2026-05-04 03:36 36.47680 140.18242 11810 ft 312 kts 231°
2026-05-04 03:36 36.46270 140.16228 11717 ft 314 kts 227°
2026-05-04 03:37 36.44587 140.14456 11712 ft 315 kts 218°
2026-05-04 03:37 36.42680 140.13126 11706 ft 319 kts 209°
2026-05-04 03:37 36.40541 140.12247 11686 ft 323 kts 199°
2026-05-04 03:37 36.38286 140.11887 11693 ft 333 kts 191°
2026-05-04 03:38 36.35967 140.11777 11695 ft 334 kts 190°
2026-05-04 03:38 36.33622 140.11693 11703 ft 336 kts 189°
2026-05-04 03:38 36.31290 140.11614 11707 ft 337 kts 189°
2026-05-04 03:38 36.28956 140.11533 11685 ft 336 kts 189°
2026-05-04 03:39 36.26625 140.11455 11681 ft 335 kts 189°
2026-05-04 03:39 36.24267 140.11374 11679 ft 335 kts 189°
2026-05-04 03:39 36.21939 140.11293 11580 ft 338 kts 189°
2026-05-04 03:39 36.19593 140.11214 11233 ft 335 kts 189°
2026-05-04 03:40 36.17274 140.11137 10863 ft 327 kts 189°
2026-05-04 03:40 36.15071 140.11069 10767 ft 312 kts 189°
2026-05-04 03:40 36.12934 140.11005 10707 ft 296 kts 190°
2026-05-04 03:40 36.10909 140.10944 10589 ft 284 kts 190°
2026-05-04 03:41 36.08998 140.10884 10452 ft 273 kts 191°
2026-05-04 03:41 36.07120 140.10823 10320 ft 263 kts 190°
2026-05-04 03:41 36.05322 140.10767 10186 ft 254 kts 191°
2026-05-04 03:41 36.03578 140.10872 10049 ft 249 kts 186°
2026-05-04 03:42 36.01849 140.11041 9705 ft 249 kts 185°
2026-05-04 03:42 36.00104 140.11212 9345 ft 249 kts 185°
2026-05-04 03:42 35.98374 140.11381 9022 ft 249 kts 184°
2026-05-04 03:42 35.96663 140.11549 8703 ft 249 kts 184°
2026-05-04 03:43 35.94921 140.11722 8373 ft 249 kts 184°
2026-05-04 03:43 35.93178 140.11894 8057 ft 248 kts 184°
2026-05-04 03:43 35.91475 140.12062 7758 ft 246 kts 184°
2026-05-04 03:43 35.89772 140.12230 7481 ft 244 kts 184°
2026-05-04 03:44 35.88057 140.12396 7159 ft 252 kts 183°
2026-05-04 03:44 35.86273 140.12569 6894 ft 257 kts 182°
2026-05-04 03:44 35.84504 140.12743 6615 ft 257 kts 182°
2026-05-04 03:44 35.82724 140.12918 6300 ft 256 kts 182°
2026-05-04 03:45 35.80940 140.13095 5972 ft 255 kts 183°
2026-05-04 03:45 35.79157 140.13271 5691 ft 252 kts 182°
2026-05-04 03:45 35.77425 140.13441 5413 ft 250 kts 181°
2026-05-04 03:45 35.75679 140.13614 5132 ft 249 kts 182°
2026-05-04 03:46 35.73958 140.13782 4860 ft 248 kts 182°
2026-05-04 03:46 35.72232 140.14082 4549 ft 253 kts 167°
2026-05-04 03:46 35.70722 140.15198 4481 ft 255 kts 147°
2026-05-04 03:46 35.69356 140.16704 4476 ft 263 kts 144°
2026-05-04 03:47 35.68022 140.18269 4483 ft 266 kts 143°
2026-05-04 03:47 35.66684 140.19849 4464 ft 265 kts 143°
2026-05-04 03:47 35.65258 140.21167 4461 ft 256 kts 161°
2026-05-04 03:47 35.63591 140.22008 4487 ft 254 kts 168°
2026-05-04 03:48 35.61935 140.22696 4481 ft 240 kts 175°
2026-05-04 03:48 35.60377 140.22662 4487 ft 213 kts 199°
2026-05-04 03:48 35.59114 140.21880 4442 ft 199 kts 224°
2026-05-04 03:48 35.58199 140.20639 4323 ft 194 kts 232°
2026-05-04 03:49 35.57438 140.19278 4187 ft 191 kts 242°
2026-05-04 03:49 35.57126 140.17702 4043 ft 193 kts 263°
2026-05-04 03:49 35.57075 140.16063 3996 ft 195 kts 262°
2026-05-04 03:49 35.57025 140.14369 3998 ft 196 kts 263°
2026-05-04 03:50 35.57010 140.12679 3998 ft 199 kts 264°
2026-05-04 03:50 35.57011 140.10968 3989 ft 200 kts 265°
2026-05-04 03:50 35.57019 140.09267 3993 ft 198 kts 265°
2026-05-04 03:50 35.57029 140.07605 3988 ft 190 kts 265°
2026-05-04 03:51 35.57032 140.05983 3780 ft 187 kts 265°
2026-05-04 03:51 35.57034 140.04408 3549 ft 180 kts 264°
2026-05-04 03:51 35.57032 140.02901 3323 ft 174 kts 264°
2026-05-04 03:51 35.57030 140.01445 3104 ft 169 kts 263°
2026-05-04 03:52 35.57024 140.00000 2897 ft 169 kts 264°
2026-05-04 03:52 35.57020 139.98561 2685 ft 170 kts 264°
2026-05-04 03:52 35.57017 139.97090 2472 ft 171 kts 264°
2026-05-04 03:52 35.57013 139.95641 2252 ft 171 kts 263°
2026-05-04 03:53 35.57010 139.94199 2019 ft 162 kts 264°
2026-05-04 03:53 35.57008 139.92894 1790 ft 149 kts 263°
2026-05-04 03:53 35.57001 139.91609 1606 ft 148 kts 263°
2026-05-04 03:53 35.56999 139.90341 1418 ft 146 kts 263°
2026-05-04 03:54 35.56994 139.89099 1222 ft 147 kts 263°
2026-05-04 03:54 35.56992 139.88164 1075 ft 149 kts 262°
2026-05-04 03:54 35.56987 139.87059 918 ft 148 kts 262°
2026-05-04 03:54 35.56925 139.85863 680 ft 127 kts 242°
2026-05-04 03:55 35.56443 139.84993 553 ft 121 kts 227°
2026-05-04 03:55 35.55838 139.84268 423 ft 116 kts 222°
2026-05-04 03:55 35.55236 139.83545 376 ft 123 kts 221°
2026-05-04 03:55 35.54615 139.82812 220 ft 124 kts 218°
2026-05-04 03:56 35.53981 139.82112 73 ft 121 kts 221°
2026-05-04 03:56 35.53405 139.81453 36 ft 99 kts 219°
2026-05-04 03:56 35.53045 139.81070 35 ft 41 kts 223°
2026-05-04 03:56 35.52931 139.80847 35 ft 24 kts 248°
2026-05-04 03:57 35.52883 139.80684 35 ft 16 kts 274°
2026-05-04 03:57 35.52933 139.80572 35 ft 14 kts 325°
2026-05-04 03:57 35.53021 139.80512 35 ft 15 kts 330°
2026-05-04 03:57 35.53126 139.80437 35 ft 18 kts 329°
2026-05-04 03:58 35.53381 139.80254 35 ft 23 kts 330°
2026-05-04 03:58 35.53526 139.80150 35 ft 25 kts 329°
2026-05-04 03:58 35.53683 139.80039 35 ft 27 kts 330°
2026-05-04 03:59 35.53854 139.79921 35 ft 29 kts 330°
2026-05-04 03:59 35.54037 139.79791 35 ft 31 kts 330°
2026-05-04 03:59 35.54222 139.79657 35 ft 29 kts 331°
2026-05-04 03:59 35.54395 139.79538 35 ft 27 kts 329°
2026-05-04 04:00 35.54543 139.79430 35 ft 21 kts 329°
2026-05-04 04:00 35.54617 139.79460 36 ft 14 kts 53°
2026-05-04 04:00 35.54672 139.79575 36 ft 12 kts 49°
2026-05-04 04:00 35.54768 139.79565 36 ft 17 kts 331°
2026-05-04 04:01 35.54883 139.79483 35 ft 20 kts 329°
2026-05-04 04:01 35.55003 139.79396 35 ft 19 kts 329°
2026-05-04 04:01 35.55068 139.79311 35 ft 11 kts 264°
2026-05-04 04:01 35.55038 139.79225 35 ft 10 kts 243°
2026-05-04 04:02 35.55039 139.79153 36 ft 4 kts 302°
2026-05-04 04:02 35.55065 139.79132 35 ft 6 kts 330°
2026-05-04 04:02 35.55082 139.79112 35 ft 2 kts 292°
2026-05-04 04:03 35.55081 139.79100 35 ft 1 kts 255°
2026-05-04 04:03 35.55077 139.79089 35 ft 2 kts 243°
2026-05-04 04:03 35.55065 139.79063 36 ft 0 kts 239°
2026-05-04 04:04 35.55060 139.79053 35 ft 2 kts 239°
2026-05-04 04:04 35.55053 139.79038 35 ft 1 kts 239°
2026-05-04 04:04 35.55052 139.79036 35 ft 0 kts 239°